| time (UTC) | temp F | wind direction | speed MPH | gust MPH | rain 1hr in | rain 24hr in | rain mn in | humidity % | barometer mb |
| 20260904160041 | 78 | 17 | 5.0 | 13.0 | 0.00 | 0.08 | 0.04 | 72 | 1015.2 |
| 20260904154536 | 77 | 302 | 3.0 | 10.0 | 0.00 | 0.09 | 0.04 | 76 | 1015.2 |
| 20260904153046 | 76 | 329 | 3.0 | 8.0 | 0.01 | 0.09 | 0.04 | 74 | 1015.4 |
| 20260904151535 | 76 | 341 | 3.0 | 9.0 | 0.01 | 0.09 | 0.04 | 75 | 1015.3 |
| 20260904150036 | 75 | 360 | 5.0 | 11.0 | 0.01 | 0.09 | 0.04 | 75 | 1015.2 |
| 20260904144534 | 75 | 272 | 2.0 | 8.0 | 0.01 | 0.09 | 0.04 | 78 | 1015.1 |
| 20260904143035 | 74 | 349 | 4.0 | 9.0 | 0.00 | 0.08 | 0.03 | 78 | 1015.2 |
| 20260904141539 | 74 | 294 | 6.0 | 11.0 | 0.00 | 0.08 | 0.03 | 78 | 1015.3 |
| 20260904140038 | 73 | 302 | 4.0 | 13.0 | 0.00 | 0.08 | 0.03 | 80 | 1015.4 |
| 20260904134534 | 73 | 337 | 6.0 | 10.0 | 0.00 | 0.09 | 0.03 | 79 | 1015.3 |
| 20260904133032 | 73 | 279 | 3.0 | 11.0 | 0.00 | 0.09 | 0.03 | 81 | 1015.2 |
| 20260904131541 | 73 | 340 | 8.0 | 13.0 | 0.00 | 0.09 | 0.03 | 80 | 1015.3 |
| 20260904130034 | 72 | 334 | 4.0 | 10.0 | 0.01 | 0.09 | 0.03 | 83 | 1015.4 |
| 20260904124542 | 71 | 307 | 3.0 | 6.0 | 0.01 | 0.10 | 0.03 | 85 | 1015.4 |
| 20260904123034 | 70 | 294 | 1.0 | 4.0 | 0.01 | 0.10 | 0.03 | 86 | 1015.7 |
| 20260904121536 | 70 | 279 | 3.0 | 7.0 | 0.01 | 0.10 | 0.03 | 85 | 1015.7 |
| 20260904120036 | 70 | 255 | 1.0 | 5.0 | 0.00 | 0.09 | 0.02 | 86 | 1015.5 |
| 20260904114542 | 70 | 281 | 1.0 | 4.0 | 0.00 | 0.09 | 0.02 | 87 | 1015.6 |
| 20260904113033 | 69 | 0 | 0.0 | 3.0 | 0.00 | 0.09 | 0.02 | 88 | 1015.4 |
| 20260904111535 | 69 | 288 | 2.0 | 4.0 | 0.00 | 0.09 | 0.02 | 89 | 1015.7 |
| 20260904110037 | 69 | 277 | 1.0 | 3.0 | 0.00 | 0.09 | 0.02 | 90 | 1015.5 |
| 20260904104536 | 69 | 267 | 1.0 | 4.0 | 0.00 | 0.10 | 0.02 | 90 | 1015.5 |
| 20260904103038 | 69 | 271 | 0.0 | 4.0 | 0.00 | 0.10 | 0.02 | 90 | 1015.5 |
| 20260904101539 | 69 | 254 | 1.0 | 4.0 | 0.00 | 0.10 | 0.02 | 90 | 1015.4 |
| 20260904100034 | 68 | 254 | 0.0 | 3.0 | 0.01 | 0.10 | 0.02 | 90 | 1014.9 |
| 20260904094537 | 69 | 286 | 1.0 | 5.0 | 0.01 | 0.10 | 0.02 | 90 | 1014.8 |
| 20260904093034 | 69 | 309 | 2.0 | 7.0 | 0.01 | 0.10 | 0.02 | 90 | 1015.0 |
| 20260904091535 | 68 | 303 | 2.0 | 7.0 | 0.01 | 0.10 | 0.02 | 90 | 1015.0 |
| 20260904090034 | 68 | 300 | 4.0 | 7.0 | 0.00 | 0.09 | 0.01 | 90 | 1015.1 |
| 20260904084533 | 68 | 348 | 1.0 | 7.0 | 0.00 | 0.10 | 0.01 | 90 | 1015.0 |
| 20260904083051 | 68 | 295 | 2.0 | 6.0 | 0.00 | 0.10 | 0.01 | 89 | 1014.7 |
| 20260904081535 | 68 | 275 | 3.0 | 7.0 | 0.00 | 0.10 | 0.01 | 89 | 1014.4 |
| 20260904080032 | 68 | 0 | 0.0 | 4.0 | 0.00 | 0.10 | 0.01 | 89 | 1014.2 |
| 20260904074540 | 69 | 283 | 3.0 | 6.0 | 0.00 | 0.10 | 0.01 | 89 | 1014.2 |
| 20260904073034 | 68 | 287 | 4.0 | 9.0 | 0.00 | 0.10 | 0.01 | 91 | 1014.1 |
| 20260904071536 | 67 | 271 | 3.0 | 6.0 | 0.00 | 0.10 | 0.01 | 94 | 1014.1 |
| 20260904070033 | 67 | 298 | 2.0 | 4.0 | 0.00 | 0.10 | 0.01 | 94 | 1013.9 |
| 20260904064533 | 68 | 268 | 2.0 | 4.0 | 0.01 | 0.11 | 0.01 | 94 | 1013.9 |
| 20260904063046 | 68 | 0 | 1.0 | 4.0 | 0.01 | 0.11 | 0.01 | 94 | 1014.0 |
| 20260904061536 | 68 | 299 | 3.0 | 5.0 | 0.01 | 0.11 | 0.01 | 93 | 1013.7 |
| 20260904060051 | 68 | 320 | 2.0 | 5.0 | 0.01 | 0.11 | 0.01 | 93 | 1013.5 |
| 20260904054534 | 68 | 283 | 3.0 | 7.0 | 0.00 | 0.10 | 0.00 | 93 | 1013.7 |
| 20260904053035 | 69 | 318 | 3.0 | 6.0 | 0.00 | 0.10 | 0.00 | 93 | 1013.9 |
| 20260904051534 | 69 | 260 | 2.0 | 7.0 | 0.00 | 0.10 | 0.00 | 92 | 1014.1 |
| 20260904050034 | 69 | 307 | 3.0 | 7.0 | 0.00 | 0.10 | 0.00 | 91 | 1014.2 |
| 20260904044543 | 69 | 263 | 2.0 | 6.0 | 0.00 | 0.10 | 0.00 | 91 | 1014.0 |
| 20260904043037 | 70 | 0 | 0.0 | 3.0 | 0.00 | 0.10 | 0.00 | 89 | 1013.7 |
| 20260904041536 | 70 | 0 | 1.0 | 4.0 | 0.00 | 0.10 | 0.00 | 88 | 1013.4 |
| 20260904040031 | 71 | 332 | 0.0 | 9.0 | 0.00 | 0.10 | 0.00 | 87 | 1013.3 |
| 20260904034536 | 71 | 265 | 2.0 | 8.0 | 0.00 | 0.11 | 0.10 | 87 | 1012.7 |
| 20260904033039 | 71 | 307 | 3.0 | 8.0 | 0.01 | 0.11 | 0.10 | 85 | 1013.7 |
| 20260904031531 | 72 | 184 | 2.0 | 11.0 | 0.01 | 0.11 | 0.10 | 85 | 1013.9 |
| 20260904030033 | 72 | 277 | 6.0 | 15.0 | 0.01 | 0.11 | 0.10 | 86 | 1014.7 |
| 20260904024536 | 73 | 293 | 7.0 | 15.0 | 0.01 | 0.11 | 0.10 | 85 | 1015.3 |
| 20260904023035 | 74 | 309 | 9.0 | 19.0 | 0.00 | 0.10 | 0.09 | 84 | 1015.5 |
| 20260904021536 | 75 | 285 | 10.0 | 17.0 | 0.00 | 0.10 | 0.09 | 87 | 1015.8 |
| 20260904020031 | 75 | 270 | 7.0 | 14.0 | 0.00 | 0.10 | 0.09 | 91 | 1015.5 |
| 20260904014539 | 75 | 272 | 6.0 | 11.0 | 0.00 | 0.10 | 0.09 | 91 | 1015.1 |
| 20260904013035 | 75 | 313 | 4.0 | 9.0 | 0.00 | 0.10 | 0.09 | 91 | 1014.8 |
| 20260904011541 | 75 | 310 | 3.0 | 5.0 | 0.00 | 0.10 | 0.09 | 91 | 1014.7 |
| 20260904010044 | 75 | 306 | 1.0 | 3.0 | 0.00 | 0.10 | 0.09 | 91 | 1014.3 |
| 20260904004545 | 76 | 306 | 1.0 | 4.0 | 0.00 | 0.11 | 0.09 | 89 | 1014.1 |
| 20260904003035 | 76 | 342 | 2.0 | 9.0 | 0.01 | 0.11 | 0.09 | 88 | 1014.7 |
| 20260904001533 | 76 | 268 | 3.0 | 8.0 | 0.01 | 0.11 | 0.09 | 88 | 1014.8 |
| 20260904000036 | 76 | 272 | 4.0 | 8.0 | 0.01 | 0.11 | 0.09 | 88 | 1014.6 |
| 20260903234542 | 77 | 276 | 2.0 | 5.0 | 0.01 | 0.11 | 0.09 | 88 | 1014.6 |
| 20260903233035 | 78 | 290 | 3.0 | 7.0 | 0.00 | 0.10 | 0.08 | 84 | 1014.4 |
| 20260903231536 | 79 | 279 | 2.0 | 6.0 | 0.00 | 0.10 | 0.08 | 83 | 1014.3 |
| 20260903230035 | 80 | 304 | 4.0 | 8.0 | 0.00 | 0.10 | 0.08 | 82 | 1014.4 |
| 20260903224536 | 80 | 317 | 4.0 | 8.0 | 0.00 | 0.11 | 0.08 | 82 | 1014.3 |
| 20260903223038 | 80 | 299 | 2.0 | 4.0 | 0.00 | 0.11 | 0.08 | 81 | 1014.0 |
| 20260903221536 | 80 | 318 | 2.0 | 5.0 | 0.00 | 0.11 | 0.08 | 81 | 1014.3 |
| 20260903220041 | 81 | 300 | 2.0 | 4.0 | 0.00 | 0.11 | 0.08 | 80 | 1013.7 |
| 20260903214541 | 81 | 302 | 0.0 | 6.0 | 0.00 | 0.11 | 0.08 | 80 | 1013.3 |
| 20260903213040 | 82 | 240 | 3.0 | 7.0 | 0.00 | 0.11 | 0.08 | 77 | 1013.4 |
| 20260903211602 | 82 | 265 | 4.0 | 8.0 | 0.01 | 0.11 | 0.08 | 76 | 1013.3 |
| 20260903210034 | 83 | 254 | 5.0 | 8.0 | 0.01 | 0.11 | 0.08 | 74 | 1013.4 |
| 20260903204535 | 84 | 286 | 4.0 | 8.0 | 0.01 | 0.12 | 0.08 | 72 | 1013.2 |
| 20260903203033 | 84 | 252 | 6.0 | 11.0 | 0.01 | 0.12 | 0.08 | 70 | 1013.0 |
| 20260903201537 | 84 | 267 | 8.0 | 12.0 | 0.00 | 0.11 | 0.07 | 69 | 1013.3 |
| 20260903200036 | 84 | 284 | 5.0 | 10.0 | 0.00 | 0.11 | 0.07 | 69 | 1013.6 |
| 20260903194536 | 84 | 242 | 9.0 | 14.0 | 0.00 | 0.12 | 0.07 | 69 | 1013.6 |
| 20260903193036 | 84 | 261 | 7.0 | 12.0 | 0.00 | 0.12 | 0.07 | 69 | 1013.8 |
| 20260903191535 | 83 | 296 | 7.0 | 13.0 | 0.00 | 0.12 | 0.07 | 70 | 1013.9 |
| 20260903190038 | 83 | 280 | 6.0 | 14.0 | 0.00 | 0.12 | 0.07 | 70 | 1014.2 |
| 20260903184537 | 83 | 360 | 9.0 | 15.0 | 0.00 | 0.13 | 0.07 | 68 | 1014.3 |
| 20260903183036 | 83 | 287 | 9.0 | 15.0 | 0.01 | 0.13 | 0.07 | 70 | 1014.4 |
| 20260903181533 | 82 | 278 | 7.0 | 13.0 | 0.01 | 0.13 | 0.07 | 71 | 1014.7 |
| 20260903180036 | 82 | 330 | 9.0 | 14.0 | 0.01 | 0.13 | 0.07 | 70 | 1014.9 |
| 20260903174553 | 82 | 323 | 9.0 | 17.0 | 0.01 | 0.15 | 0.07 | 71 | 1015.1 |
| 20260903173039 | 81 | 302 | 9.0 | 15.0 | 0.00 | 0.14 | 0.06 | 72 | 1015.2 |
| 20260903171535 | 80 | 308 | 9.0 | 17.0 | 0.00 | 0.14 | 0.06 | 73 | 1015.3 |
| 20260903170058 | 79 | 271 | 10.0 | 16.0 | 0.00 | 0.14 | 0.06 | 73 | 1015.4 |
| 20260903164541 | 80 | 320 | 9.0 | 16.0 | 0.00 | 0.15 | 0.06 | 72 | 1015.5 |
| 20260903163034 | 79 | 279 | 8.0 | 19.0 | 0.01 | 0.15 | 0.06 | 76 | 1015.8 |
| 20260903161534 | 78 | 269 | 10.0 | 17.0 | 0.01 | 0.15 | 0.06 | 75 | 1016.0 |